Regional Weather Roundup
Issued by NWS

Home | Current Version | Previous Version | Text Only | Print | Product List | Glossary On
Versions: 1 2 3 4 5 6 7 8 9 10 11 12 13 14 15 16 17 18 19 20 21 22 23 24 25 26 27 28 29 30 31 32 33 34 35 36 37 38 39 40 41 42 43 44 45 46 47 48 49 50
000
ASUS43 KMPX 282301
RWRMN
WEATHER ROUNDUP FOR MINNESOTA
NATIONAL WEATHER SERVICE TWIN CITIES/CHANHASSEN MN
600 PM CDT THU AUG 28 2014


NOTE: "FAIR" INDICATES FEW OR NO CLOUDS BELOW 12,000 FEET WITH NO
SIGNIFICANT WEATHER AND/OR OBSTRUCTIONS TO VISIBILITY. N/A MEANS
CURRENT SKY AND/OR WEATHER CONDITIONS ARE NOT AVAILABLE.

MNZ060>063-068>070-290000-
   Twin Cities Metro

CITY           SKY/WX    TMP DP  RH WIND       PRES   REMARKS
TWIN CITIES    CLOUDY    69  65  86 SE13      29.96F
ST PAUL        CLOUDY    68  64  87 SE13      29.97F
CRYSTAL        LGT RAIN  70  63  78 E14       29.94F
BLAINE         CLOUDY    70  66  88 E8        29.97F
LAKEVILLE      CLOUDY    64  64 100 E8        29.96F
EDEN PRAIRIE   CLOUDY    69  64  84 SE9       29.94F
SOUTH ST PAUL  CLOUDY    69  64  83 SE5       29.96F
LAKE ELMO      CLOUDY    68  64  88 SE8       29.99S
$$
MNZ001>005-007-008-013>017-022>024-027-028-290000-
   Northwest Minnesota

CITY           SKY/WX    TMP DP  RH WIND       PRES   REMARKS
BEMIDJI        CLOUDY    70  62  73 SE8       29.94S
HALLOCK        MOSUNNY   75  66  73 S20       29.84S
ROSEAU         MOSUNNY   73  64  73 S14       29.89S
WARROAD        CLOUDY    72  64  78 CALM      29.90S
THIEF RVR FALL CLOUDY    70  64  83 S8        29.90F
CROOKSTON      CLOUDY    72  64  78 S12       29.89S
FOSSTON        CLOUDY    70  61  73 S7        29.93S
DETROIT LAKES  DRIZZLE   68  63  83 SE9       29.94F
MOORHEAD       CLOUDY    70  68  94 SE8       29.90F
PARK RAPIDS    CLOUDY    69  60  73 SE8       29.95F
MAHNOMEN       CLOUDY    69  62  77 S10       29.92S
$$
MNZ006-009>011-018-025>026-290000-
   North Central Minnesota

CITY           SKY/WX    TMP DP  RH WIND       PRES   REMARKS
BAUDETTE       CLOUDY    70  60  70 S16       29.92S
FLAG ISLAND    CLOUDY    70  64  83 S12       29.88F
INTL FALLS     CLOUDY    70  59  68 S5        29.95F
WASKISH        CLOUDY    70  63  78 SE6       29.94S
BIG FORK       CLOUDY    68  63  83 CALM      29.97F
LONGVILLE      CLOUDY    66  63  88 SE5       29.96F
GRAND RAPIDS   CLOUDY    70  57  64 SE8       29.98S
CRANE LAKE     CLOUDY    68  57  68 CALM      29.98S
ORR            CLOUDY    66  55  68 CALM      29.95F
COOK           CLOUDY    70  57  64 S2        29.99S
WALKER         MOCLDY    69  60  74 SE6       29.96S
$$
MNZ012-019>021-037-290000-
   Northeast Minnesota

CITY           SKY/WX    TMP DP  RH WIND       PRES   REMARKS
DULUTH         CLOUDY    65  55  70 E9        30.01F
ELY            PTSUNNY   70  54  56 S7        30.00S
HIBBING        CLOUDY    71  58  63 S6        29.98F
EVELETH        CLOUDY    70  55  60 SE8       30.00F
DULUTH HARBOR  CLOUDY    64  59  82 NE9       30.01F
TWO HARBORS    CLOUDY    64  54  68 E7        30.00F
SILVER BAY     CLOUDY    63  57  82 NE5       30.01F
GRAND MARAIS     N/A     63  57  81 NE5       30.03F
G MARAIS ARPRT MOSUNNY   63  48  59 S5        30.06F
$$
MNZ029>031-032-039>041-046>048-054>057-064-290000-
   West Central Minnesota

CITY           SKY/WX    TMP DP  RH WIND       PRES   REMARKS
FERGUS FALLS   CLOUDY    68  64  88 SE6       29.92S
WHEATON        CLOUDY    64  63  94 SE12      29.92S
MORRIS         LGT RAIN  66  64  94 SE9       29.91S
ALEXANDRIA     LGT RAIN  66  63  90 SE9       29.95F
ELBOW LAKE     CLOUDY    66  64  90 SE7       29.92S
WADENA         LGT RAIN  66  63  88 E6        29.95S
GLENWOOD       RAIN      64  63  94 E8        29.95S
APPLETON       DRIZZLE   66  64  94 E10       29.90F
BENSON         HVY RAIN  64  64 100 SE8       29.92S
ORTONVILLE     LGT RAIN  66  63  88 SE8       29.90S
MADISON        DRIZZLE   70  66  88 E8        29.89F
WILLMAR        CLOUDY    66  63  88 E10       29.93F
$$
MNZ033>034-036-042>043-049>051-058-059-290000-
   Central Minnesota

CITY           SKY/WX    TMP DP  RH WIND       PRES   REMARKS
ST CLOUD       LGT RAIN  69  64  84 E6        29.95F
SAUK CENTRE    RAIN      65  63  94 E10       29.95S
PAYNESVILLE    LGT RAIN  62  62  99 NE6       29.95S
AITKIN         CLOUDY    72  63  73 SE5       29.96F
PINE RIVER     LGT RAIN  68  63  83 E5        29.99F
BRAINERD       CLOUDY    69  61  75 CALM      29.96F
STAPLES        DRIZZLE   66  64  94 E3        29.95F
LONG PRAIRIE   LGT RAIN  64  63  94 E5        29.95F
LITTLE FALLS   LGT RAIN  66  61  82 SE7       29.96S
LITCHFIELD     CLOUDY    68  66  94 E8        29.94F
BUFFALO        CLOUDY    67  63  85 E7        29.96S
MAPLE LAKE     LGT RAIN  68  65  90 E5        29.95F
$$
MNZ037-044-045-052-053-290000-
   East Central Minnesota

CITY           SKY/WX    TMP DP  RH WIND       PRES   REMARKS
PRINCETON      CLOUDY    70  63  78 SE5       29.97S
MORA           LGT RAIN  66  59  77 CALM      30.00R
CAMBRIDGE      LGT RAIN  70  59  68 SE3       29.96S
RUSH CITY      CLOUDY    69  62  80 CALM      29.98F
MOOSE LAKE     CLOUDY    70  59  68 SE3       29.97F
HINCKLEY       FAIR      70  63  78 SE6       29.99R
CLOQUET        CLOUDY    66  55  68 E8        30.00F
MCGREGOR       CLOUDY    70  61  73 SE5       29.99S
$$
MNZ071>073-080-081-089-090-097-098-290000-
   Southwest Minnesota

CITY           SKY/WX    TMP DP  RH WIND       PRES   REMARKS
MONTEVIDEO     DRIZZLE   66  66 100 SE8       29.91S
GRANITE FALLS  CLOUDY    67  66  97 E7        29.91F
CANBY          CLOUDY    66  65  97 SE8       29.90F FOG
MARSHALL       CLOUDY    70  64  83 E9        29.88S
REDWOOD FALLS  LGT RAIN  67  67 100 E9        29.90S FOG
OLIVIA         CLOUDY    68  64  88 E7        29.91F FOG
PIPESTONE      CLOUDY    70  66  88 SE8       29.89S FOG
WINDOM         CLOUDY    70  66  88 SE9       29.91S
WORTHINGTON    CLOUDY    68  66  94 SE8       29.91S
JACKSON        CLOUDY    68  64  88 SE9       29.91F
TRACY          CLOUDY    69  68  96 E7        29.90S FOG
SLAYTON        LGT RAIN  69  68  97 CALM      29.90F
$$
MNZ065>067-074>077-082>085-091>093-290000-
   South Central Minnesota

CITY           SKY/WX    TMP DP  RH WIND       PRES   REMARKS
MANKATO        CLOUDY    66  63  88 E13       29.93F
NEW ULM        PTSUNNY   68  68 100 E8        29.92S
ST JAMES       CLOUDY    70  66  88 E8        29.92S
FAIRMONT       CLOUDY    64  61  88 E9        29.91F
GLENCOE        CLOUDY    69  64  82 E12       29.94S
FARIBAULT      HVY RAIN  68  63  83 E9        29.96S
OWATONNA       LGT RAIN  66  63  88 E8        29.96S
WASECA         LGT RAIN  63  59  88 E9        29.96F
ALBERT LEA     DRIZZLE   64  64 100 NE7       29.95F
$$
MNZ078>079-086>088-094>096-290000-
   Southeast Minnesota

CITY           SKY/WX    TMP DP  RH WIND       PRES   REMARKS
ROCHESTER      HVY RAIN  65  62  90 E12       29.97F FOG
RED WING       DRIZZLE   66  64  94 E5        29.97S
STANTON        RAIN      66  63  89 E9        29.95F
DODGE CENTER   HVY RAIN  64  63  94 E10       29.97S
WINONA         RAIN      70  68  94 SE7       29.99S
AUSTIN         DRIZZLE   64  63  94 E3        29.94F
PRESTON        HVY RAIN  64  64 100 CALM      29.98S
$$
ABBREVIATIONS USED IN REMARKS
   TC - TEMPERATURES IN CELSIUS
  WCI - WIND CHILL INDEX
   HX - HEAT INDEX
  VSB - VISIBILITY
$$



USA.gov is the U.S. government's official web portal to all federal, state and local government web resources and services.